Location: Blanton
(30.8302°N, 83.1188°W)
Time: 17:58:31
(UTC+00:00)

X-37B - Pass Details

Date: 04 December 2021
Orbit: 334 x 337 km, 45.0° (Epoch: 11 January)

Event Time Altitude Azimuth Distance (km) Brightness Sun altitude
Rises 23:50:05 0° 240° (WSW) 2,090 5.9 -16.8°
Reaches altitude 10° 23:52:05 10° 245° (WSW) 1,257 4.4 -17.2°
Maximum altitude 23:54:52 58° 325° (NW) 392 0.6 -17.8°
Enters shadow 23:55:06 55° 352° (N) 404 0.5 -17.8°
